STARLINK-4453, 53497

Orbit data source: Space-Track

STARLINK-4453, 53497 is a payload satellite owned by SpaceX/Seattle (US) in SSO that was launched on Fri, 12 Aug 2022 UTC via an FALCON 9 launch vehicle from the Air Force Western Test Range (AFWTR). Payload-class satellites include a variety of spacecraft equipped with specific instruments for various scientific and technological missions. These include communications satellites like Starlink; space stations such as the ISS; scientific satellites like the Hubble; Earth observation satellites from companies like Planet Labs, Umbra, and HawkEye 360; GPS; miniature CubeSats for education and research; and military/defense satellites.

Loading next visibility...
Identifier
53497, 2022-099AJ
Orbit
SSO
Country
Flag of USUS
Related business
Manufacturer
SpaceX/Seattle
Mission
Operational Commercial Communications
Bus & Motor
STARLINK, Unknown motor
Mass
300 kg wet, ~275 kg dry
Launch date (UTC)
2022-08-12 (4 years ago)
Launch vehicle
FALCON 9
Launch site
Air Force Western Test Range (AFWTR)
Object type
Payload
Rocket body
Debris
Shape & HBR
Box + 1 Pan, 10.1 m
Radar Cross Section
13.562 m², Large (>1 m²)

Expand to show TLE details & history
Last TLE update: 14 hours ago

TLE from 14 hours ago
0 STARLINK-4453
1 53497U 22099AJ  26145.30564786 -.00002169  00000-0 -14629-3 0  9992
2 53497  97.4474 265.1986 0001454 169.0237 191.1022 15.05654418207503
Epoch: 2026-05-25T07:20Z
TLE epoch observation values (Epoch: 2026-05-25T07:20:07.975Z)
Latitude
-0.00002°
Longitude
-87.72997°
Altitude
553.556 km
Speed
7.584 km/s
True Right ascension
17h 40m 47s
True Declination
0° 00' 00"
Sunlit
Object was in full shadow at epoch
Visualization orbit readout
Latitude
Unknown
Longitude
Unknown
Altitude
Unknown
Speed
Unknown
Apparent Right ascension
Unknown
Apparent Declination
Unknown
Sunlit
N/A
Visualization observer readout
Local Sidereal Time
06:09:31
Azimuth
Unknown
Elevation
Unknown
Doppler factor
Unknown
Orbital elements
Apogee altitude
547.491 km
Perigee altitude
545.478 km
Semi-major axis
6,924.621 km
Eccentricity
0.00015
Inclination
97.4474°
RAAN
265.1986°
Arg. of periapsis
169.0237°
True anomaly
191.09899°
Mean anomaly
191.1022°
Eccentric anomaly
191.1006°
Mean motion
3.7666 °/min
Orbital period
95.58 mins
BSTAR
-0.00014629
Loading maneuver chart data...
Computing Atmospheric mass density...
Loading historical data...
Loading historical data...
Loading historical data...
Loading historical data...
Loading historical data...
Loading historical data...
Loading historical data...

Documentation

Showing up to 5 results
|